COSMOS 1275 DEB, 20087

Orbit data source: Space-Track

COSMOS 1275 DEB, 20087 is space debris in LEO originally from a launch on Thu, 04 Jun 1981 UTC launched from the Plesetsk Missile And Space Complex (PKMTR). Debris objects in space refer to the collection of defunct objects orbiting the Earth. Examples of debris include non-operational satellites, rocket bodies, and fragments generated from explosions, collisions, or faulty payload assembly.

Loading next visibility...
Identifier
20087, 1981-053MJ
Orbit
LEO
Country
Flag of CISCIS
Related business
Manufacturer
Unknown
Mission
Spacecraft
Bus & Motor
Unknown
Mass
Unknown
Launch date (UTC)
1981-06-04 (45 years ago)
Launch vehicle
Unknown
Launch site
Plesetsk Missile And Space Complex (PKMTR)
Object type
Payload
Rocket body
Debris
Shape & HBR
Unknown shape, 0.1 m
Radar Cross Section
Medium (>0.1 m² and <1 m²)

Expand to show TLE details & history
Last TLE update: 13 hours ago

TLE from 13 hours ago
0 COSMOS 1275 DEB
1 20087U 81053MJ  26254.96304720  .00000863  00000-0  77169-3 0  9994
2 20087  82.9861  71.8066 0102580 231.5089 282.4532 13.81025995866497
Epoch: 2026-09-11T23:06Z
TLE epoch observation values (Epoch: 2026-09-11T23:06:47.278Z)
Latitude
27.00613°
Longitude
-89.4455°
Altitude
948.052 km
Speed
7.388 km/s
True Right ascension
16h 32m 55s
True Declination
26° 52' 15"
Sunlit
Object was in daylight at epoch
Visualization orbit readout
Latitude
Unknown
Longitude
Unknown
Altitude
Unknown
Speed
Unknown
Apparent Right ascension
Unknown
Apparent Declination
Unknown
Sunlit
N/A
Visualization observer readout
Local Sidereal Time
04:44:05
Azimuth
Unknown
Elevation
Unknown
Doppler factor
Unknown
Orbital elements
Apogee altitude
1,032.636 km
Perigee altitude
882.14 km
Semi-major axis
7,335.525 km
Eccentricity
0.01026
Inclination
82.9861°
RAAN
71.8066°
Arg. of periapsis
231.5089°
True anomaly
281.30227°
Mean anomaly
282.4532°
Eccentric anomaly
281.87804°
Mean motion
3.45459 °/min
Orbital period
104.21 mins
BSTAR
0.00077169
Loading maneuver chart data...
Computing Atmospheric mass density...
Loading historical data...
Loading historical data...
Loading historical data...
Loading historical data...
Loading historical data...
Loading historical data...
Loading historical data...

Documentation

Showing up to 5 results
|